Pagrindinis puslapis
METAR-TAF:

METAR-TAF

Oro uostai :

Žuazeiro do Nortė, Ceará, Brazilija

platuma: 07-13-06S, ilguma: 039-16-18W, Aukštis: 424 m

Dabartinis oras

Ataskaita buvo paskelbta 1 valandą ir 47 minutes, ne 12:00 UTC
Vėjas 4 kt iš Rytų/Pietryčių
Temperatūra 27°C
Drėgmė 74%
Slėgis 1019 hPa
Matomumas 10 km arba daugiau
Su prošvaistėmis ne aukštis 1700 ft

METAR: SBJU 011200Z 11004KT 9999 BKN017 27/22 Q1019

Laikas: 10:47 (13:47 UTC)


TAF: trūkstamas

Orai ataskaitas ir orų prognozės (METAR, TAF).

turimą stotys yra geltonos ir raudonos taškus žemėlapyje.

Perkelti pele per norėdami pamatyti stoties vardą.

Tada spustelėkite, norėdami matyti oro stebėjimo ir prognozės.

Norėdami pakeisti žemėlapį: spustelėkite ant žalios mygtukų su juodo kryžiaus žemyn,; žalią mygtuką su brūkšneliu, jei norite nutolinti; arba žalių rodyklių gretimoms žemėlapius.


METAR-TAF: